Powrót do katalogu

STARLINK-32585

AktywnyŁącznośćVLEO
NORAD 61953·PAYLOAD·🇺🇸 United States

Wystrzelony Nov 14, 2024 z Vandenberg Space Force Base

Loading…

Następne Przeloty (najbliższe 24 godziny)

TLE

ŚwieżeSource: CelesTrak SupGP

Epoka: Sep 14, 2026, 21:26 UTC

1 61953C 24209Q   26257.89354167 -.00011621  00000+0 -34342-3 0  2574
2 61953  53.1596 334.2077 0001213  79.2053  25.0719 15.34389822    14

Śledź STARLINK-32585 w czasie rzeczywistym z AllMySat

Download on the App Store